STARLINK-35953, 66637

Orbit data source: Space-Track

STARLINK-35953, 66637 is a payload satellite owned by SpaceX/Seattle (US) in LEO that was launched on Sun, 23 Nov 2025 UTC via an FALCON 9 launch vehicle from the Air Force Western Test Range (AFWTR). Payload-class satellites include a variety of spacecraft equipped with specific instruments for various scientific and technological missions. These include communications satellites like Starlink; space stations such as the ISS; scientific satellites like the Hubble; Earth observation satellites from companies like Planet Labs, Umbra, and HawkEye 360; GPS; miniature CubeSats for education and research; and military/defense satellites.

Loading next visibility...
Identifier
66637, 2025-271W
Orbit
LEO
Country
Flag of USUS
Related business
Manufacturer
SpaceX/Seattle
Mission
Operational Commercial Communications
Bus & Motor
STARLINK V2MO, Unknown motor
Mass
575 kg wet, ~530 kg dry
Launch date (UTC)
2025-11-23 (10 months ago)
Launch vehicle
FALCON 9
Launch site
Air Force Western Test Range (AFWTR)
Object type
Payload
Rocket body
Debris
Shape & HBR
Box + 1 Pan, 17.7 m
Radar Cross Section
41.120 m², Large (>1 m²)

Expand to show TLE details & history
Last TLE update: 11 hours ago

TLE from 11 hours ago
0 STARLINK-35953
1 66637U 25271W   26265.51716656  .00017132  00000-0  51689-3 0  9999
2 66637  53.1608 300.5991 0000831 116.4097 243.6991 15.34408242 47772
Epoch: 2026-09-22T12:24Z
TLE epoch observation values (Epoch: 2026-09-22T12:24:43.190Z)
Latitude
-0.00003°
Longitude
113.03761°
Altitude
463.832 km
Speed
7.636 km/s
True Right ascension
20h 02m 23s
True Declination
0° 00' 00"
Sunlit
Object was in full shadow at epoch
Visualization orbit readout
Latitude
Unknown
Longitude
Unknown
Altitude
Unknown
Speed
Unknown
Apparent Right ascension
Unknown
Apparent Declination
Unknown
Sunlit
N/A
Visualization observer readout
Local Sidereal Time
16:26:31
Azimuth
Unknown
Elevation
Unknown
Doppler factor
Unknown
Orbital elements
Apogee altitude
463.504 km
Perigee altitude
462.367 km
Semi-major axis
6,841.073 km
Eccentricity
0.00008
Inclination
53.1608°
RAAN
300.5991°
Arg. of periapsis
116.4097°
True anomaly
243.69056°
Mean anomaly
243.6991°
Eccentric anomaly
243.69483°
Mean motion
3.83581 °/min
Orbital period
93.85 mins
BSTAR
0.00051689
Loading maneuver chart data...
Computing Atmospheric mass density...
Loading historical data...
Loading historical data...
Loading historical data...
Loading historical data...
Loading historical data...
Loading historical data...
Loading historical data...

Documentation

Showing up to 5 results
|